sat.trackr.live / text

‹ back to catalog

STARLINK-30379

NORAD 57811 · 2023-138D

PAYLOAD ACTIVE UNKNOWN

§ Identity

Operator
Country
US
Launch date
2023-09-09
Launch site
AFETR
Launch vehicle
Mass (kg)
RCS (m²)

Purposes: comms

External: N2YO · Heavens-Above · Gunter

§ Orbital elements

Epoch: 2026-09-20T21:35:53.323008Z

Period
94.27 min
Inclination
43.0026°
Eccentricity
0.0000912
Mean motion
15.27565028 rev/d
Perigee alt
482.5 km
Apogee alt
483.7 km
Semi-major
6,861.2 km
B*
-2.4821e-5
RAAN
211.7029°
Arg perigee
258.3827°
Mean anomaly
101.6922°
Rev number
16,859

§ Raw data

STARLINK-303791 57811U 23138D   26263.89992272 -.00000945  00000+0 -24821-4 0  99962 57811  43.0026 211.7029 0000912 258.3827 101.6922 15.27565028168599

JSON: /api/v1/satellites/57811 · /tle

For live sub-satellite position, see the globe view (requires WebGL).

§ Visibility from observer

Set your observer location to see the next 7 days of passes ≥ 10°. The values pass through the URL so the page stays shareable.

No JS? Fill the form by hand. The geolocation button needs JavaScript.